Regional Weather Roundup
Issued by NWS Green Bay, WI

Home | Current Version | Previous Version | Graphics & Text | Print | Product List | Glossary Off
Versions: 1 2 3 4 5 6 7 8 9 10 11 12 13 14 15 16 17 18 19 20 21 22 23 24 25 26 27 28 29 30 31 32 33 34 35 36 37 38 39 40 41 42 43 44 45 46 47 48 49 50

000
ASUS43 KGRB 202010
RWRGRB

NORTH-CENTRAL AND NORTHEAST WISCONSIN REGIONAL WEATHER ROUNDUP
NATIONAL WEATHER SERVICE GREEN BAY WI
200 PM CST SAT DEC 20 2014

WIZ005-009-010>012-018-019-202100-
NORTH CENTRAL WISCONSIN

CITY           SKY/WX    TMP DP  RH WIND       PRES   REMARKS
IRONWOOD       CLOUDY    30  27  86 S8        30.10S
MANITOWISH WTR CLOUDY    27  26  96 S7        30.12S FOG
ARBOR VITAE    CLOUDY    29  26  89 S6        30.13S FOG
EAGLE RIVER    LGT SNOW  27  26  99 S3        30.13S
LAND O LAKES   CLOUDY    27  26  94 CALM      30.13F FOG
RHINELANDER    CLOUDY    26  24  92 S5        30.14F FOG
PHILLIPS       CLOUDY    28  25  87 S8        30.13F
ANTIGO         CLOUDY    26  24  93 S5        30.17S FOG
TOMAHAWK       CLOUDY    27  24  87 CALM      30.16S FOG
MERRILL        CLOUDY    28  26  93 S3        30.17S FOG
$$

WIZ013-073-202100-
NORTHEAST WISCONSIN

CITY           SKY/WX    TMP DP  RH WIND       PRES   REMARKS
IRON MOUNTAIN  CLOUDY    27  23  85 SE3       30.17F
MARINETTE      CLOUDY    28  21  74 CALM      30.22S
OCONTO         CLOUDY    29  24  81 CALM      30.22F
$$

WIZ017-030-035>037-045-202100-
CENTRAL WISCONSIN

CITY           SKY/WX    TMP DP  RH WIND       PRES   REMARKS
MEDFORD        CLOUDY    28  25  89 SE5       30.15S FOG
WAUSAU         CLOUDY    29  24  82 S7        30.16S
MOSINEE        CLOUDY    28  27  93 SE3       30.18S
MARSHFIELD     CLOUDY    30  25  81 SE7       30.17S HAZE
WISC RAPIDS    CLOUDY    31  24  75 S5        30.20F
STEVENS POINT  CLOUDY    28  23  80 S6        30.18F
WAUPACA        FLURRIES  32  25  74 S3        30.21F
SHAWANO        CLOUDY    31  26  81 CALM      30.22S
CLINTONVILLE   CLOUDY    30  23  74 S3        30.22S
$$

WIZ038-039-048-051-202100-
FOX VALLEY

CITY           SKY/WX    TMP DP  RH WIND       PRES   REMARKS
NWS GREEN BAY  CLOUDY    30  24  78 CALM      30.22F HAZE
APPLETON       CLOUDY    28  21  74 VRB5      30.22F
OSHKOSH        CLOUDY    29  23  78 S6        30.22F HAZE
FOND DU LAC    LGT SNOW  30  23  75 S3        30.22F
$$

WIZ022-050-052-202100-
EAST CENTRAL WISCONSIN

CITY           SKY/WX    TMP DP  RH WIND       PRES   REMARKS
STURGEON BAY   CLOUDY    28  21  74 SE5       30.23F
MANITOWOC      CLOUDY    33  24  69 CALM      30.23F
SHEBOYGAN      CLOUDY    32  23  69 CALM      30.22F
$$

LMZ563-521-522-541>543-202100-
LAKESHORE

STATION/POSITION TIME  TEMP    WIND        PRES    VSBY  WAVE
                       AIR SEA DIR/SP/G                  HT/PER
                 (UTC) (F)     (DEG/KT/KT) (MB)    (MI)  (FT/S)
SHEBOYGAN LKSHOR 2000   31 33  350/  5/  6 1024.5F
KEWAUNEE LKSHORE 2000   32     280/  1/  3 1022.6F
ALGOMA MARINA    2000             CALM       N/A
TWO RIVERS CG    1900   33                 1024.3      6
NORTHPORT PIER   2000   31      CALM  /  2 1023.7S
SISTER BAY LKSHO 1900             CALM       N/A
STURGEON BAY CG  1900   31     300/  4     1024.3   3 1/2  0
CHAMBERS ISLAND  2000   29      CALM  /  4 1023.7F
MENOMINEE LKSHOR 2000   28     150/  3/  4 1023.9F
$$



USA.gov is the U.S. government's official web portal to all federal, state and local government web resources and services.